Columbia, MO

6:50 PM CST on November 17, 2019 (GMT -0600)
Columbia Regional

Weather History for KCOU - October, 2019

Change the Weather History Date:

Monday, October 21, 2019

  Actual Average Record
Temperature  
Mean Temperature 57 °F 55 °F  
Max Temperature 61 °F 66 °F 87 °F (1978)
Min Temperature 52 °F 44 °F 25 °F (1917)
Degree Days  
Heating Degree Days 8 11  
Month to date heating degree days 178 173  
Since 1 July heating degree days 178 241  
Cooling Degree Days 0 0  
Month to date cooling degree days 31 15  
Year to date cooling degree days 1590 1242  
Growing Degree Days 6 (Base 50)    
Moisture  
Dew Point 49 °F    
Average Humidity 73    
Maximum Humidity 96    
Minimum Humidity 49    
Precipitation  
Precipitation 1.19 in 0.11 in 2.11 in (1949)
Month to date precipitation 3.87 2.35  
Year to date precipitation 39.18 35.97  
Snow  
Snow 0.00 in 0.00 in 0.00 in (2015)
Month to date snowfall 0.0 0.0  
Since 1 July snowfall 0.0 0.0  
Since 1 September snowfall 0.0 0.0  
Snow Depth 0.00 in    
Sea Level Pressure  
Sea Level Pressure 29.57 in    
Wind  
Wind Speed 16 mph (SW)    
Max Wind Speed 31 mph    
Max Gust Speed 41 mph    
Visibility 8 miles    
Events Rain , Thunderstorm    
T = Trace of Precipitation, MM = Missing Value Source: NWS Daily Summary

Daily Weather History Graph

Daily Weather History Graph

Search for Another Location

Airport or City:

Astronomy

Oct. 21, 2019 Rise Set
Actual Time 7:24 AM CDT 6:22 PM CDT
Civil Twilight 6:57 AM CDT 6:49 PM CDT
Nautical Twilight 6:26 AM CDT 7:20 PM CDT
Astronomical Twilight 5:55 AM CDT 7:51 PM CDT
Moon No Moon Rise 2:40 PM CDT (10/21)
Length of Visible Light 11h 52m
Length of Day
10h 58m
Waning Gibbous, 48% of the Moon is Illuminated
Oct 21
Waning Gibbous
Oct 27
New
Nov 4
First Quarter
Nov 12
Full
Nov 19
Last Quarter

Hourly Weather History & Observations

Time (CDT) Temp. Dew Point Humidity Pressure Visibility Wind Dir Wind Speed Gust Speed Precip Events Conditions
12:54 AM 59.0 °F 54.0 °F 83% 29.56 in 10.0 mi ESE 11.5 mph - N/A   Clear
1:25 AM 60.1 °F 54.0 °F 80% 29.59 in 10.0 mi SSE 9.2 mph - 0.00 in Rain , Thunderstorm Light Rain
1:35 AM 59.0 °F 54.0 °F 83% 29.59 in 10.0 mi ESE 4.6 mph - 0.00 in Thunderstorm Thunderstorm
1:50 AM 59.0 °F 55.4 °F 88% 29.58 in 10.0 mi SE 3.5 mph - 0.00 in Rain , Thunderstorm Light Rain
1:54 AM 59.0 °F 55.0 °F 87% 29.58 in 10.0 mi SSE 5.8 mph - 0.01 in Rain , Thunderstorm Light Rain
2:03 AM 57.9 °F 55.0 °F 90% 29.60 in 2.5 mi SSE 5.8 mph - 0.04 in Rain , Thunderstorm Heavy Thunderstorms and Rain
2:30 AM 57.0 °F 55.0 °F 93% 29.57 in 1.5 mi North 5.8 mph - 0.34 in Rain , Thunderstorm Heavy Thunderstorms and Rain
2:52 AM 57.2 °F 55.4 °F 94% 29.54 in 1.8 mi NNE 5.8 mph - 0.55 in Rain Heavy Rain
2:54 AM 57.0 °F 55.9 °F 96% 29.54 in 1.5 mi NNE 4.6 mph - 0.57 in Rain Heavy Rain
3:01 AM 57.0 °F 55.9 °F 96% 29.56 in 1.0 mi Calm Calm - 0.12 in Rain Heavy Rain
3:05 AM 57.0 °F 55.9 °F 96% 29.56 in 0.8 mi WSW 3.5 mph - 0.22 in Rain Heavy Rain
3:16 AM 57.0 °F 55.9 °F 96% 29.57 in 1.8 mi West 4.6 mph - 0.42 in Rain , Thunderstorm Heavy Rain
3:24 AM 57.9 °F 55.9 °F 93% 29.56 in 2.5 mi WNW 6.9 mph - 0.46 in Rain , Thunderstorm Heavy Rain
3:35 AM 57.0 °F 55.9 °F 96% 29.55 in 3.0 mi North 8.1 mph - 0.53 in Rain , Thunderstorm Thunderstorms and Rain
3:43 AM 57.0 °F 55.9 °F 96% 29.53 in 4.0 mi NE 12.7 mph - 0.56 in Rain , Thunderstorm Thunderstorms and Rain
3:54 AM 57.0 °F 55.9 °F 96% 29.36 in 4.0 mi ENE 26.5 mph 33.4 mph 0.59 in Rain , Thunderstorm Rain
4:01 AM 57.0 °F 55.9 °F 96% 29.36 in 4.0 mi ENE 19.6 mph 33.4 mph 0.01 in Rain Light Rain
4:54 AM 57.9 °F 55.9 °F 93% 29.47 in 10.0 mi SSW 6.9 mph - 0.02 in   Scattered Clouds
5:51 AM 57.2 °F 55.4 °F 94% 29.49 in 10.0 mi SW 12.7 mph - N/A   Mostly Cloudy
5:54 AM 57.9 °F 55.9 °F 93% 29.48 in 10.0 mi SW 13.8 mph - N/A   Mostly Cloudy
6:27 AM 57.9 °F 55.9 °F 93% 29.48 in 10.0 mi SSW 11.5 mph - N/A   Overcast
6:54 AM 57.9 °F 55.9 °F 93% 29.47 in 10.0 mi SSW 12.7 mph - N/A   Overcast
7:23 AM 57.9 °F 55.9 °F 93% 29.49 in 10.0 mi WSW 18.4 mph 29.9 mph N/A   Overcast
7:35 AM 57.9 °F 54.0 °F 87% 29.50 in 10.0 mi WSW 20.7 mph 38.0 mph N/A   Overcast
7:46 AM 57.0 °F 51.1 °F 81% 29.50 in 10.0 mi WSW 17.3 mph 28.8 mph N/A   Mostly Cloudy
7:54 AM 57.0 °F 51.1 °F 81% 29.50 in 10.0 mi WSW 17.3 mph 28.8 mph N/A   Partly Cloudy
8:54 AM 55.4 °F 44.6 °F 67% 29.54 in 10.0 mi WSW 13.8 mph 28.8 mph N/A   Clear
9:08 AM 53.1 °F 44.1 °F 71% 29.55 in 10.0 mi West 17.3 mph 23.0 mph N/A   Clear
9:54 AM 53.1 °F 43.0 °F 69% 29.56 in 10.0 mi West 16.1 mph 31.1 mph N/A   Clear
10:54 AM 55.0 °F 43.0 °F 64% 29.57 in 10.0 mi WSW 15.0 mph 26.5 mph N/A   Partly Cloudy
11:54 AM 55.9 °F 42.1 °F 60% 29.58 in 10.0 mi WSW 20.7 mph 32.2 mph N/A   Clear
12:54 PM 57.9 °F 42.1 °F 56% 29.59 in 10.0 mi SW 28.8 mph 38.0 mph N/A   Scattered Clouds
1:54 PM 59.0 °F 39.9 °F 49% 29.59 in 10.0 mi SW 29.9 mph 40.3 mph N/A   Partly Cloudy
2:54 PM 57.9 °F 41.0 °F 53% 29.61 in 10.0 mi West 17.3 mph 31.1 mph N/A   Mostly Cloudy
3:54 PM 57.9 °F 39.9 °F 51% 29.63 in 10.0 mi WSW 19.6 mph 29.9 mph N/A   Overcast
4:54 PM 57.9 °F 39.0 °F 49% 29.65 in 10.0 mi SW 21.9 mph 32.2 mph N/A   Overcast
5:54 PM 57.0 °F 39.9 °F 53% 29.66 in 10.0 mi WSW 16.1 mph - N/A   Overcast
6:54 PM 55.9 °F 39.0 °F 53% 29.68 in 10.0 mi WSW 16.1 mph 26.5 mph N/A   Mostly Cloudy
7:54 PM 54.0 °F 37.9 °F 55% 29.71 in 10.0 mi WSW 11.5 mph - N/A   Clear
8:54 PM 53.1 °F 39.0 °F 59% 29.71 in 10.0 mi WSW 11.5 mph - N/A   Mostly Cloudy
9:54 PM 53.1 °F 37.9 °F 57% 29.74 in 10.0 mi WSW 13.8 mph - N/A   Scattered Clouds
10:54 PM 53.1 °F 37.9 °F 57% 29.76 in 10.0 mi WSW 17.3 mph - N/A   Scattered Clouds
11:54 PM 52.0 °F 37.9 °F 59% 29.78 in 10.0 mi West 20.7 mph 29.9 mph N/A   Overcast